Regional Weather Roundup
Issued by NWS

Home | Current Version | Previous Version | Text Only | Print | Product List | Glossary On
Versions: 1 2 3 4 5 6 7 8 9 10 11 12 13 14 15 16 17 18 19 20 21 22 23 24 25 26 27
000
ASUS44 KBMX 210210
RWRAL

ALABAMA REGIONAL WEATHER ROUNDUP
NATIONAL WEATHER SERVICE BIRMINGHAM AL
900 PM CDT SUN APR 20 2014

NOTE: "FAIR" INDICATES FEW OR NO CLOUDS BELOW 12,000 FEET
WITH NO SIGNIFICANT WEATHER AND/OR OBSTRUCTIONS TO VISIBILITY.

THE REMARK "TC" DENOTES TEMPERATURE IN DEGREES CELSIUS.

ALZ001>011-014-016>018-020-210300-
NORTH ALABAMA

CITY           SKY/WX    TMP DP  RH WIND       PRES   REMARKS
MUSCLE SHOALS  PTCLDY    57  48  72 CALM      30.13S
HUNTSVILLE     PTCLDY    64  49  57 NW3       30.13R
DECATUR        PTCLDY    61  52  72 CALM      30.14R
HALEYVILLE     FAIR      58  50  75 CALM      30.17R
GADSDEN        NOT AVBL
$$

ALZ012-013-022-023-030>036-040>044-210300-
WEST CENTRAL ALABAMA

CITY           SKY/WX    TMP DP  RH WIND       PRES   REMARKS
TUSCALOOSA     CLEAR     63  53  70 CALM      30.13R
$$

ALZ015-024>027-033>036-040>044-210300-
CENTRAL ALABAMA

CITY           SKY/WX    TMP DP  RH WIND       PRES   REMARKS
BIRMINGHAM     PTCLDY    66  47  50 CALM      30.15R
MONTGOMERY     CLEAR     64  57  78 S3        30.14R
SHELBY CO ARPT CLEAR     63  54  72 CALM      30.13R
MAXWELL AFB    CLEAR     67  62  85 CALM      30.13R
GREENVILLE     FAIR      61  56  83 S3        30.14R
$$

ALZ019-021-028-029-037-038-045>048-210300-
EAST CENTRAL ALABAMA

CITY           SKY/WX    TMP DP  RH WIND       PRES   REMARKS
ANNISTON       PTCLDY    60  53  77 CALM      30.14R
ALEXANDER CITY PTCLDY    62  53  72 CALM      30.16R
AUBURN         PTCLDY    59  52  77 CALM      30.17R
$$

ALZ051>064-210300-
SOUTHWEST ALABAMA

CITY           SKY/WX    TMP DP  RH WIND       PRES   REMARKS
MOBILE         PTCLDY    63  56  78 SE6       30.15R
BROOKLEY FIELD CLEAR     65  57  75 E7        30.16R
EVERGREEN      CLEAR     59  56  89 CALM      30.17R
$$

ALZ049-050-065>069-210300-
SOUTHEAST ALABAMA

CITY           SKY/WX    TMP DP  RH WIND       PRES   REMARKS
DOTHAN         CLEAR     57  55  93 CALM      30.16S
OZARK          CLEAR     57  55  92 SE2       30.13S
TROY           CLEAR     59  55  87 CALM      30.14R
EUFAULA        FAIR      57  54  89 CALM      30.12S
$$



USA.gov is the U.S. government's official web portal to all federal, state and local government web resources and services.